Location: Quebec
(46.8000°N, 71.2500°W)
Time: 14:38:04
(UTC-05:00)

Envisat - Pass Details

Date: 08 October 2017
Orbit: 764 x 766 km, 98.2° (Epoch: 17 December)

Event Time Altitude Azimuth Distance (km) Brightness Sun altitude
Exits shadow 20:41:28 49° 195° (SSW) 984 3.4 -26.3°
Maximum altitude 20:42:45 69° 258° (WSW) 822 3.2 -26.5°
Drops below altitude 10° 20:47:50 10° 342° (NNW) 2,315 5.9 -27.3°
Sets 20:50:10 0° 345° (NNW) 3,247 6.7 -27.7°
